www.pogodaiklimat.ru

Погода и климат >> Архив погоды >> Испания >> Херес-де-ла-Фронтера


ПОГОДА в Херес-де-ла-Фронтере

  • Прогноз погоды в Херес-де-ла-Фронтере
  • Монитор погоды в Херес-де-ла-Фронтере

АРХИВ ПОГОДЫ в Херес-де-ла-Фронтере

Время (UTC), дата Ветер
(напр.,м/с)
 
Видим.   Явления Облачность Т
(С)
Тd
(С)
f
(%)
Тe
(С)
Тes
(С)
Комфортность P
(гПа)
Po
(гПа)
Тmin
(С)
Tmax
(С)
R
(мм)
R24
(мм)
S
(см)
10 18.06 Ю 4 н/о н/о +23.1 +12.7 52 +26 +26 жарко 1017.8 1014.6
11 18.06 ЮЗ 4 н/о н/о +24.4 +12.7 48 +26 +26 жарко 1018.0 1014.8
12 18.06 Ю 5 30 км 1/1 200 м
[Cu hum]
+24.5 +12.9 48 +26 +37 жарко 1017.7 1014.5
13 18.06 ЮЗ 3 н/о н/о +25.5 +14.4 50 +28 +28 жарко 1017.4 1014.2
14 18.06 ЮЗ 6 н/о н/о +26.3 +15.0 50 +29 +29 жарко 1017.1 1014.0
15 18.06 ЮЗ 6 30 км 1/1 200 м
[Cu hum]
+25.6 +15.2 53 +29 +34 душно 1016.8 1013.6
16 18.06 З 5 н/о н/о +25.8 +15.3 52 +29 +29 душно 1016.6 1013.5
17 18.06 З 5 н/о н/о +24.7 +15.8 58 +28 +28 душно 1016.5 1013.3
18 18.06 З 4 30 км 1/1 200 м
[Cu hum]
+24.0 +15.2 58 +27 +28 жарко 1016.8 1013.6 +26.5
19 18.06 З 4 н/о н/о +22.2 +15.3 65 +26 +26 душно 1017.0 1013.8
20 18.06 З 4 н/о н/о +20.6 +16.0 75 +24 +24 комфорт 1017.3 1014.1
21 18.06 З 3 20 км 4/1 600 м
[Cu Sc Ci fib]
+19.7 +16.2 80 +22 +22 комфорт 1017.7 1014.5
22 18.06 З 4 н/о н/о +19.1 +16.5 85 +21 +21 комфорт 1017.8 1014.6
23 18.06 З 4 н/о н/о +19.2 +17.0 87 +21 +21 комфорт 1017.7 1014.5
00 19.06 ЮЗ 4 н/о н/о +19.1 +17.2 89 +21 +21 комфорт 1017.7 1014.5
01 19.06 ЮЗ 3 н/о н/о +18.9 +17.2 90 +20 +20 1017.4 1014.2
02 19.06 З 3 н/о н/о +19.1 +16.8 87 +21 +21 комфорт 1017.1 1013.9
03 19.06 ЮЗ 2 н/о н/о +18.2 +16.5 90 +19 +19 1017.0 1013.8
04 19.06 ЮЗ 2 н/о н/о +19.1 +16.9 87 +21 +21 комфорт 1017.0 1013.8
05 19.06 З 2 н/о н/о +18.7 +17.0 90 +21 +21 комфорт 1017.1 1013.9
06 19.06 СЗ 3 н/о н/о +18.7 +17.1 90 +20 +20 1017.2 1014.0 +18.1
07 19.06 СЗ 3 н/о н/о +19.4 +17.0 86 +22 +22 комфорт 1017.7 1014.5
08 19.06 СЗ 3 н/о н/о +21.6 +16.4 72 +25 +25 комфорт 1017.8 1014.6
09 19.06 СЗ 3 20 км 8/6 300 м
[Cu Sc Ci sp]
+22.6 +15.1 63 +26 +30 жарко 1017.6 1014.4
10 19.06 СЗ 3 н/о н/о +24.3 +15.2 57 +27 +27 жарко 1017.7 1014.5
11 19.06 СЗ 3 н/о н/о +26.6 +14.9 49 +29 +29 жарко 1017.5 1014.4
12 19.06 З 3 20 км 6/6 1000 м
[Cu Sc Ci sp]
+27.5 +14.8 46 +30 +38 жарко 1017.2 1014.1
13 19.06 З 5 н/о н/о +27.6 +14.9 46 +30 +30 жарко 1016.6 1013.5
14 19.06 ЮЗ 4 н/о н/о +27.9 +15.0 45 +30 +30 жарко 1016.1 1013.0
15 19.06 З 6 25 км 4/1 1000 м
[Cu hum Ci fib]
+27.7 +15.1 46 +30 +36 жарко 1015.7 1012.6
16 19.06 З 6 н/о н/о +27.0 +15.1 48 +30 +30 душно 1015.6 1012.5
17 19.06 З 6 н/о н/о +26.1 +15.5 52 +29 +29 жарко 1015.4 1012.3
18 19.06 ЮЗ 7 40 км 1/1 1500 м
[Cu hum Ci fib]
+24.1 +16.0 61 +27 +28 жарко 1015.7 1012.5 +28.6
19 19.06 З 6 н/о н/о +22.0 +16.7 72 +26 +26 душно 1016.0 1012.8
20 19.06 З 5 н/о н/о +20.5 +16.7 79 +24 +24 комфорт 1016.2 1013.0
21 19.06 ЮЗ 3 15 км 4/4 1500 м
[Cu Sc Ci fib]
+19.4 +16.8 85 +22 +22 комфорт 1016.5 1013.3
22 19.06 Ю 3 н/о н/о +18.6 +16.7 89 +20 +20 1017.0 1013.8
23 19.06 Ю 3 н/о н/о +18.5 +17.0 91 +20 +20 1016.9 1013.7
00 20.06 Ю 3 н/о н/о +18.1 +16.4 90 +19 +19 1016.7 1013.5
01 20.06 Ю 2 н/о н/о +17.5 +16.0 91 +18 +18 1016.3 1013.1
02 20.06 штиль 0 н/о н/о +16.3 +15.0 92 +16 +16 1016.0 1012.7
03 20.06 СВ 1 н/о н/о +14.6 +13.8 95 +15 +15 1015.8 1012.5
04 20.06 штиль 0 н/о н/о +14.4 +13.6 95 +14 +14 1015.9 1012.6
05 20.06 штиль 0 н/о н/о +13.7 +13.1 96 +13 +13 1016.0 1012.7
06 20.06 штиль 0 н/о н/о +15.2 +14.4 95 +15 +15 1016.2 1012.9 +13.7
07 20.06 штиль 0 н/о н/о +18.7 +15.6 82 +20 +20 1016.3 1013.1
08 20.06 З 2 н/о н/о +21.8 +15.6 68 +25 +25 комфорт 1016.3 1013.1
09 20.06 З 4 60 км 1/1 1000 м
[Cu hum]
+24.2 +13.9 53 +27 +33 жарко 1016.3 1013.1
10 20.06 З 5 н/о н/о +24.7 +13.3 49 +27 +27 жарко 1016.6 1013.4
11 20.06 ЮЗ 5 н/о н/о +25.4 +11.9 43 +27 +27 жарко 1016.4 1013.2
12 20.06 ЮЗ 7 60 км 4/4 1000 м
[Cu hum]
+26.6 +12.3 41 +28 +31 жарко 1016.3 1013.2
13 20.06 ЮЗ 7 н/о н/о +26.1 +13.1 45 +28 +28 жарко 1015.9 1012.8
14 20.06 ЮЗ 7 н/о н/о +26.3 +12.7 43 +28 +28 жарко 1015.3 1012.2
15 20.06 ЮЗ 7 60 км 3/1 1000 м
[Cu hum]
+26.0 +14.2 48 +28 +31 жарко 1015.0 1011.9
16 20.06 ЮЗ 7 н/о н/о +25.6 +14.2 49 +28 +28 жарко 1015.0 1011.9
17 20.06 ЮЗ 6 н/о н/о +24.8 +13.7 50 +27 +27 жарко 1014.8 1011.6
18 20.06 ЮЗ 6 60 км ясно +24.3 +12.9 49 +26 +27 жарко 1014.8 1011.6 +27.0
19 20.06 ЮЗ 6 н/о н/о +22.9 +13.4 55 +26 +26 жарко 1014.9 1011.7
20 20.06 ЮЗ 4 н/о н/о +20.7 +13.6 64 +23 +23 комфорт 1015.1 1011.9
21 20.06 ЮЗ 5 35 км ясно +20.0 +14.5 71 +22 +22 комфорт 1015.4 1012.2
22 20.06 Ю 3 н/о н/о +18.7 +14.4 76 +20 +20 1015.7 1012.5
23 20.06 Ю 2 н/о н/о +17.9 +14.6 81 +18 +18 1015.9 1012.7
00 21.06 В 2 н/о н/о +15.9 +14.1 89 +16 +16 1016.0 1012.7
01 21.06 штиль 0 н/о н/о +15.0 +13.4 90 +15 +15 1016.1 1012.8
02 21.06 С 1 н/о н/о +14.1 +12.3 89 +14 +14 1016.1 1012.8
03 21.06 штиль 0 н/о н/о +13.4 +12.1 92 +13 +13 1016.0 1012.7
04 21.06 В 1 н/о н/о +12.9 +12.0 94 +14 +14 1015.9 1012.6
05 21.06 штиль 0 н/о н/о +12.2 +10.8 91 +12 +12 1016.3 1013.0
06 21.06 штиль 0 50 км ясно +14.0 +12.7 92 +14 +14 1016.7 1013.4 +12.2
07 21.06 СЗ 4 н/о н/о +16.9 +12.0 73 +17 +17 1017.0 1013.7
08 21.06 СЗ 3 н/о н/о +19.9 +12.3 62 +22 +22 комфорт 1017.1 1013.9
09 21.06 ЮЗ 2 50 км 1/0
[Ci sp]
+21.7 +12.3 55 +24 +35 комфорт 1017.0 1013.8
10 21.06 ЮЗ 3 н/о н/о +23.7 +13.0 51 +26 +26 жарко 1016.8 1013.6
11 21.06 ЮЗ 3 н/о н/о +25.2 +11.6 43 +27 +27 жарко 1016.5 1013.3
12 21.06 ЮЗ 4 60 км 1/0
[Ci fib]
+27.1 +11.2 37 +28 +41 жарко 1015.8 1012.7
13 21.06 З 4 н/о н/о +27.8 +10.5 34 +28 +28 жарко 1015.2 1012.1
14 21.06 ЮЗ 5 н/о н/о +28.3 +10.5 33 +29 +29 жарко 1015.1 1012.0
15 21.06 З 4 60 км ясно +28.0 +12.4 38 +29 +39 жарко 1014.8 1011.7
16 21.06 З 5 н/о н/о +28.0 +12.4 38 +29 +29 жарко 1014.6 1011.5
17 21.06 З 5 н/о н/о +27.5 +13.9 43 +30 +30 жарко 1014.2 1011.1
18 21.06 ЮЗ 6 60 км 1/0
[Ci fib]
+25.5 +14.3 50 +28 +29 жарко 1014.2 1011.1 +28.7
19 21.06 ЮЗ 5 н/о н/о +23.6 +13.7 54 +26 +26 жарко 1014.5 1011.3
20 21.06 ЮЗ 3 н/о н/о +21.4 +13.3 60 +24 +24 комфорт 1014.7 1011.5
21 21.06 ЮВ 3 20 км ясно +19.3 +14.1 72 +21 +21 комфорт 1015.0 1011.8
22 21.06 ЮВ 2 н/о н/о +18.2 +14.3 78 +19 +19 1015.2 1012.0
23 21.06 ЮВ 2 н/о н/о +17.2 +14.1 82 +18 +18 1015.1 1011.9
00 22.06 Ю 2 н/о н/о +16.4 +14.1 86 +17 +17 1014.7 1011.5
01 22.06 ЮВ 1 н/о н/о +15.4 +13.8 90 +16 +16 1014.4 1011.1
02 22.06 штиль 0 н/о н/о +14.3 +12.3 88 +14 +14 1014.2 1010.9
03 22.06 В 1 н/о н/о +14.0 +12.4 90 +14 +14 1014.0 1010.7
04 22.06 В 1 н/о н/о +13.2 +11.8 91 +13 +13 1014.0 1010.7
05 22.06 В 1 н/о н/о +12.8 +11.5 92 +14 +14 1014.5 1011.2
06 22.06 штиль 0 30 км ясно +15.5 +14.0 91 +15 +16 1015.0 1011.7 +12.8
07 22.06 ЮВ 1 н/о н/о +19.1 +15.8 81 +22 +22 комфорт 1015.3 1012.1
08 22.06 Ю 3 н/о н/о +21.9 +15.8 68 +26 +26 душно 1015.2 1012.0
09 22.06 Ю 3 60 км ясно +25.1 +15.8 56 +28 +38 жарко 1015.1 1011.9
10 22.06 ЮВ 2 н/о н/о +27.7 +15.6 48 +31 +31 душно 1014.9 1011.8
11 22.06 В 1 н/о н/о +30.0 +15.7 42 +33 +33 душно 1014.7 1011.6
12 22.06 Ю 4 60 км 4/0
[Ci fib]
+30.8 +16.2 41 +34 +48 очень
душно
1014.1 1011.0
13 22.06 ЮЗ 4 н/о н/о +31.0 +17.0 43 +35 +35 очень
душно
1013.8 1010.7
14 22.06 ЮЗ 5 н/о н/о +29.9 +17.0 46 +34 +34 очень
душно
1013.3 1010.2
15 22.06 ЮЗ 6 н/о н/о +30.0 +16.1 43 +33 +33 душно 1012.8 1009.7
16 22.06 ЮЗ 6 н/о н/о +29.7 +15.4 42 +32 +32 душно 1012.7 1009.6
17 22.06 ЮЗ 7 н/о н/о +28.3 +14.9 44 +31 +31 душно 1012.6 1009.5
18 22.06 ЮЗ 5 30 км 3/0
[Ci fib]
+26.9 +15.3 49 +30 +31 душно 1012.7 1009.6 +31.6
19 22.06 ЮЗ 4 н/о н/о +25.8 +14.0 48 +28 +28 жарко 1012.9 1009.8
20 22.06 ЮЗ 4 н/о н/о +23.5 +12.8 51 +26 +26 жарко 1013.3 1010.1
21 22.06 ЮЗ 4 20 км 3/0
[Ci fib]
+21.9 +12.7 56 +24 +24 комфорт 1014.1 1010.9
22 22.06 ЮЗ 2 н/о н/о +20.1 +13.1 64 +23 +23 комфорт 1014.5 1011.3
23 22.06 штиль 0 н/о н/о +19.1 +13.3 69 +20 +20 1014.5 1011.3
00 23.06 В 1 н/о н/о +17.6 +14.1 80 +19 +19 1014.1 1010.9
01 23.06 ЮВ 1 н/о н/о +16.8 +13.5 81 +18 +18 1013.9 1010.7
02 23.06 С 2 н/о н/о +15.5 +11.9 79 +15 +15 1013.5 1010.2
03 23.06 СВ 1 н/о н/о +15.4 +12.9 85 +17 +17 1013.6 1010.3
04 23.06 штиль 0 н/о н/о +15.0 +12.4 84 +15 +15 1013.7 1010.4
05 23.06 В 1 н/о н/о +14.6 +13.0 90 +15 +15 1013.8 1010.5
06 23.06 Ю 1 27 км ясно +16.5 +14.9 90 +17 +18 1013.4 1010.2 +14.6
07 23.06 Ю 2 н/о н/о +20.6 +17.5 82 +25 +25 комфорт 1013.8 1010.6
08 23.06 ЮВ 4 н/о н/о +23.3 +18.3 73 +29 +29 душно 1013.9 1010.7
09 23.06 Ю 3 30 км 1/0
[Ci fib]
+25.8 +17.9 62 +30 +40 душно 1013.9 1010.8
10 23.06 ЮВ 2 н/о н/о +27.4 +17.4 54 +31 +31 душно 1013.7 1010.6
11 23.06 ЮЗ 2 н/о н/о +28.8 +17.2 50 +33 +33 очень
душно
1013.6 1010.5
12 23.06 ЮЗ 4 25 км 1/1 200 м
[Cu hum]
+30.0 +17.9 48 +34 +48 очень
душно
1012.9 1009.8
13 23.06 ЮЗ 3 н/о н/о +30.2 +17.5 47 +34 +34 очень
душно
1012.6 1009.5
14 23.06 З 6 н/о н/о +29.6 +18.7 52 +35 +35 очень
душно
1012.4 1009.3
15 23.06 ЮЗ 4 25 км 5/1 200 м
[Cu hum Cs]
+29.5 +18.0 50 +34 +42 очень
душно
1012.1 1009.0
16 23.06 ЮЗ 5 н/о н/о +29.0 +17.4 50 +33 +33 очень
душно
1011.9 1008.8
17 23.06 ЮЗ 5 н/о н/о +28.6 +16.5 48 +32 +32 душно 1011.6 1008.5
18 23.06 ЮЗ 5 25 км 5/0
[Ci sp]
+26.9 +15.0 48 +30 +31 душно 1011.7 1008.6 +30.7
19 23.06 З 4 н/о н/о +25.3 +16.2 57 +29 +29 душно 1012.2 1009.1
20 23.06 З 4 н/о н/о +21.9 +15.3 66 +25 +25 комфорт 1012.9 1009.7
21 23.06 З 2 25 км ясно +21.1 +15.2 69 +24 +24 комфорт 1013.7 1010.5
22 23.06 ЮЗ 2 н/о н/о +20.2 +15.6 75 +24 +24 комфорт 1014.3 1011.1
23 23.06 Ю 2 н/о н/о +19.4 +16.6 84 +22 +22 комфорт 1014.6 1011.4
00 24.06 Ю 3 н/о н/о +18.5 +16.3 87 +20 +20 1014.5 1011.3
01 24.06 Ю 2 н/о н/о +18.0 +16.5 91 +19 +19 1014.0 1010.8
02 24.06 Ю 2 н/о н/о +17.6 +16.6 94 +18 +18 1013.7 1010.5
03 24.06 Ю 4 н/о н/о +18.8 +18.0 95 +20 +20 1013.6 1010.4
04 24.06 Ю 3 н/о н/о +18.5 +17.5 94 +20 +20 1013.4 1010.2
05 24.06 ЮВ 1 н/о н/о +17.9 +16.9 94 +19 +19 1013.9 1010.7
06 24.06 ЮВ 2 20 км 8/0
[Ci fib]
+18.7 +17.5 93 +20 +21 1013.9 1010.7 +17.6
07 24.06 Ю 3 н/о н/о +20.3 +18.1 87 +24 +24 комфорт 1014.4 1011.2
08 24.06 Ю 4 н/о н/о +22.0 +17.8 77 +27 +27 душно 1015.0 1011.8
09 24.06 ЮЗ 4 25 км 8/5 300 м
[Sc Cc]
+23.7 +18.2 71 +28 +31 душно 1015.1 1011.9
10 24.06 Ю 4 н/о н/о +23.9 +18.5 72 +28 +28 душно 1015.2 1012.0
11 24.06 ЮЗ 4 н/о н/о +24.4 +18.7 71 +29 +29 душно 1015.1 1011.9
12 24.06 ЮЗ 5 25 км 6/6 600 м
[Sc]
+26.1 +19.2 66 +31 +36 очень
душно
1015.0 1011.9
13 24.06 ЮЗ 5 н/о н/о +26.5 +18.8 63 +32 +32 очень
душно
1014.7 1011.6
14 24.06 З 5 н/о н/о +27.3 +18.5 59 +32 +32 очень
душно
1014.4 1011.3
15 24.06 ЮЗ 5 25 км 5/1 600 м
[Sc Ci]
+27.2 +19.0 61 +32 +39 очень
душно
1014.4 1011.3
16 24.06 З 5 н/о н/о +27.5 +18.7 59 +33 +33 очень
душно
1014.3 1011.2
17 24.06 З 5 н/о н/о +26.8 +18.9 62 +32 +32 очень
душно
1014.2 1011.1
18 24.06 З 5 50 км 6/0
[Ci]
+26.0 +18.5 63 +31 +32 очень
душно
1014.2 1011.1 +28.0
19 24.06 З 4 н/о н/о +25.1 +18.3 66 +30 +30 душно 1014.4 1011.3
20 24.06 ЮЗ 4 н/о н/о +22.6 +17.5 73 +28 +28 душно 1014.9 1011.7
21 24.06 ЮЗ 3 25 км 4/0
[Ci fib]
+21.0 +17.5 80 +25 +25 комфорт 1015.4 1012.2
22 24.06 ЮЗ 3 н/о н/о +20.2 +17.6 85 +24 +24 комфорт 1015.7 1012.5
23 24.06 Ю 2 н/о н/о +19.5 +17.6 89 +22 +22 комфорт 1016.1 1012.9
00 25.06 Ю 2 н/о н/о +19.0 +17.8 93 +21 +21 комфорт 1016.0 1012.8
01 25.06 штиль 0 н/о н/о +17.5 +16.5 94 +17 +17 1015.5 1012.3
02 25.06 В 2 н/о н/о +16.9 +16.1 95 +17 +17 1015.1 1011.9
03 25.06 ЮВ 1 н/о н/о +16.5 +15.9 96 +17 +17 1014.9 1011.7
05 25.06 Ю 2 н/о н/о +16.8 +16.5 98 +17 +17 1015.2 1012.0
06 25.06 Ю 1 60 км ясно +17.7 +17.2 97 +19 +19 1015.8 1012.6 +16.4
07 25.06 Ю 3 н/о н/о +20.3 +18.6 90 +24 +24 комфорт 1016.2 1013.0
08 25.06 Ю 4 н/о н/о +22.7 +18.8 79 +29 +29 очень
душно
1016.3 1013.1
09 25.06 Ю 4 н/о н/о +25.0 +18.3 66 +29 +29 душно 1016.3 1013.1
10 25.06 Ю 4 н/о н/о +26.4 +18.2 61 +31 +31 душно 1016.2 1013.1
11 25.06 ЮЗ 4 н/о н/о +27.5 +17.2 53 +31 +31 душно 1015.9 1012.8

 

Местоположение метеостанции Херес-де-ла-Фронтера (Испания): широта 36.75 долгота -6.07 высота над уровнем моря 28 м.

В архиве по умолчанию представлена погода в Херес-де-ла-Фронтере за последнюю неделю. Архивные данные за месяц целиком и за предыдущие месяцы, начиная с января 2011 года, Вы можете получить, выбрав интересующий диапазон дат из раскрывающегося списка и нажав кнопку "Ввод!".


*Определитесь, кто Вы:
робот инопланетянин человек

Внимание! Время в таблицах - всемирное. Для получения местного времени необходимо прибавить поправку, которая равна 1 ч.

Смотрите также архив погоды в соседних городах и на ближайших метеорологических станциях:

Погода в Кадисской бухте (Испания) (33 км)
Погода в Сан-Фернандо (Испания) (34 км)
Погода в Вехер-де-ла-Фронтера (Испания) (56 км)
Погода в Морон-де-ла-Фронтере (Испания) (60 км)
Погода в Грасалеме (Испания) (62 км)
Погода в Эль-Ареносильо (Испания) (71 км)
Погода в Севилье (Испания) (76 км)
Погода в Эстепоне (Испания) (90 км)
Погода в Тарифе (Испания) (91 км)
Погода Гибралтаре (Гибралтар) (93 км)

Пояснения к столбцам:

Ветер - указаны скорость ветра в м/с - средняя за 10 мин, порывы в срок и между сроками (в фигурных скобках) и направление, откуда дует ветер: С - северный, СВ - северо-восточный, В - восточный, ЮВ - юго-восточный, Ю - южный, ЮЗ - юго-западный, З - западный, СЗ - северо-западный.
Видимость - горизонтальная дальность видимости в метрах или километрах. При видимости от 1 до 10 км при отсутствии осадков обычно наблюдается дымка, при ухудшении видимости до 1 км и менее - туман. В сухую погоду видимость может ухудшаться дымом, пылью или мглою.
Явления - указаны атмосферные явления, наблюдавшиеся в срок или в последний час перед сроком; фигурными скобками обозначены явления, наблюдавшиеся между сроками (за 1-3 часа до срока); квадратными скобками обозначены град или гололедные отложения с указанием их диаметра в мм.
Облачность - указаны через наклонную черту общая и нижняя облачность в баллах и высота нижней границы облаков в метрах; квадратными скобками обозначены формы облаков: Ci - перистые, Cs - перисто-слоистые, Cc - перисто-кучевые, Ac - высококучевые, As - высокослоистые, Sc - слоисто-кучевые, Ns - слоисто-дождевые, Cu - кучевые, Cb - кучево-дождевые. Подробнее классификацию облаков см. в Атласе облаков (PDF).
T - Температура воздуха - температура, измеренная на высоте 2 м над землей.
Td - Температура точки росы - температура, при понижении до которой содержащийся в воздухе водяной пар достигнет насыщения.
f - Относительная влажность воздуха - влажноcть воздуха, измеренная на высоте 2 м над землей.
Te - Эффективная температура - температура, которую ощущает одетый по сезону человек в тени. Характеристика душности погоды. При расчете учитывается влияние влажности воздуха и скорости ветра на теплоощущения человека.
Tes - Эффективная температура на солнце - температура, которую ощущает человек, с поправкой на солнечный нагрев. Характеристика знойности погоды. Зависит от высоты солнца над горизонтом, облачности и скорости ветра. Ночью, в пасмурную погоду, а также при ветре 12 м/с и более поправка равна нулю.
P - Атмосферное давление - приведенное к уровню моря атмосферное давление.
Po - Атмосферное давление - измеренное на уровне метеостанции атмосферное давление.
Tmin - Минимальная температура - минимум температуры воздуха на высоте 2 м над землей.
Tmax - Максимальная температура - максимум температуры воздуха на высоте 2 м над землей.
R - Количество осадков - Количество выпавших осадков за период времени, мм. При наведении курсора мыши на число - период времени, за который выпало указанное количество осадков.
R24 - Количество осадков - Количество выпавших осадков за 24 часа, мм.
S - Снежный покров - Высота снежного покрова, см. При наведении курсора мыши на число - состояние снежного покрова и степень покрытия местности в баллах.